Welcome to the New NWS' Forecast!
Most changes are behind the scenes, but click here for differences you might notice.
Latest weather observations around

Corsicana, Campbell Field-Corsicana Municipal Airport (KCRS)

Using English Units (Switch to International System of Units)
Date/ Time (CDT) Wind (mph) Vis. (mi) Weather Sky Cond. Temp (°F) Rel. Humidity Wind Chill (°F) Heat Index (°F) Pressure Precip. (in)
Air Dwpt 6 hour Altimeter (inHg) Sea level (inHg) 1 hr 3 hr 6 hr
Max Min
Sep 18 07:53 S 3 10 Clear CLR 75 73     94%   77 30.02 30      
Sep 18 06:53 SE 5 10 Clear CLR 74 72     94%   75 30 29.98      
Sep 18 05:53 Calm 10 Clear CLR 75 71     88%   76 29.99 29.97      
Sep 18 04:53 S 3 10 Clear CLR 76 72     88%   77 29.98 29.96      
Sep 18 03:53 S 5 10 Clear CLR 76 73     91%   77 29.98 29.96      
Sep 18 02:53 S 5 10 Clear CLR 77 74     90%   79 29.98 29.96      
Sep 18 01:53 SSE 3 10 Clear CLR 78 75     90%   80 29.99 29.97      
Sep 18 00:53 ESE 3 10 Clear CLR 78 75     90%   80 29.99 29.97      
Sep 17 23:53 Calm 10 Clear CLR 80 75     85%   85 29.99 29.97      
Sep 17 22:53 SSE 3 10 Clear CLR 80 75     85%   85 29.99 29.97      
Sep 17 21:53 SE 3 10 Clear CLR 82 74     77%   88 29.98 29.96      
Sep 17 20:53 Calm 10 Clear CLR 82 73     74%   87 29.95 29.94      
Sep 17 19:53 Calm 10 Clear CLR 84 73     70%   90 29.93 29.91      
Sep 17 18:53 WSW 3 10 Mostly Cloudy BKN055 90 70     52%   95 29.93 29.91      
Sep 17 17:53 Calm 10 Clear CLR 92 69     47%   97 29.94 29.92      
Sep 17 16:53 5 10 Clear CLR 92 70     49%   98 29.94 29.92      
Sep 17 15:53 WSW 10 10 Clear CLR 92 72     52%   100 29.95 29.93      
Sep 17 14:53 Calm 10 Clear CLR 92 71     51%   99 29.97 29.95      
Sep 17 13:53   10 Clear CLR 90 71     54%   96 29.99 29.97      
Sep 17 12:53 W 5 10 Clear CLR 89 71     55%   95 30.01 29.99      
Sep 17 11:53 WSW 5 10 Clear CLR 87 70     57%   92 30.03 30.01      
Sep 17 10:53 WSW 8 10 Clear CLR 85 71     63%   90 30.03 30.01      
Sep 17 09:53 W 6 10 Mostly Clear FEW120 84 73     70%   90 30.02 30      
Sep 17 08:53 SW 6 10 Clear CLR 78 74     87%   80 30.01 29.99      
Sep 17 07:53 SW 6 10 Clear CLR 76 73     91%   77 29.98 29.97      
Sep 17 06:53 W 5 10 Mostly Clear FEW120 75 73     94%   77 29.97 29.95      
Sep 17 05:53 SW 3 10 Mostly Cloudy BKN120 75 73     94%   77 29.96 29.94      
Sep 17 04:53 WSW 3 10 Clear CLR 75 73     94%   77 29.95 29.93      
Sep 17 03:53 Calm 10 Clear CLR 76 73     91%   77 29.95 29.93      
Sep 17 02:53 Calm 10 Clear CLR 76 73     91%   77 29.95 29.93      
Sep 17 01:53 Calm 10 Clear CLR 77 73     88%   79 29.94 29.92      
Sep 17 00:53 WSW 5 10 Clear CLR 77 74     90%   79 29.94 29.93      
Sep 16 23:53 Calm 10 Clear CLR 78 74     87%   80 29.95 29.93      
Sep 16 22:53 SE 3 10 Clear CLR 80 74     82%   85 29.95 29.93      
Sep 16 21:53 ESE 3 10 Clear CLR 79 74     85%   83 29.95 29.93      
Sep 16 20:53 SSE 6 10 Clear CLR 80 74     82%   85 29.94 29.93      
Sep 16 19:53 SSE 6 10 Clear CLR 82 74     77%   88 29.93 29.91      
Sep 16 18:53 E 5 10 Clear CLR 87 73     63%   95 29.92 29.9      
Sep 16 17:53 ENE 5 10 Clear CLR 91 72     54%   99 29.9 29.88      
Sep 16 16:53 NE 6 10 Clear CLR 92 71     51%   99 29.9 29.88      
Sep 16 15:53 ENE 7 10 Partly Cloudy FEW044 SCT090 92 72     52%   100 29.91 29.89      
Sep 16 14:53 Calm 10 Clear CLR 91 72     54%   99 29.93 29.91      
Sep 16 13:53 E 6 10 Mostly Clear FEW037 90 73     58%   98 29.96 29.94      
Sep 16 12:53 SSE 5 10 Clear CLR 88 74     63%   97 29.99 29.97      
Sep 16 11:53 SE 7 10 Mostly Clear FEW026 88 74     63%   97 30 29.98      
Sep 16 10:53 6 10 Clear CLR 85 75     72%   93 30.01 29.99      
Sep 16 09:53 Calm 10 Clear CLR 82 76     82%   89 30 29.99      
Sep 16 08:53 ESE 3 10 Clear CLR 78 75     90%   80 29.99 29.98      
Sep 16 07:53 Calm 5 Fog/Mist CLR 74 73     97%   76 29.98 29.97      
Sep 16 06:53 Calm 7 Clear CLR 73 72     96%   75 29.97 29.96      
Sep 16 05:53 NE 3 9 Clear CLR 73 72     96%   75 29.95 29.93      
Sep 16 04:53 Calm 9 Clear CLR 74 73     97%   76 29.95 29.93      
Sep 16 03:53 Calm 9 Clear CLR 74 73     97%   76 29.95 29.93      
Sep 16 02:53 Calm 10 Clear CLR 75 73     94%   77 29.96 29.94      
Sep 16 01:53 NNE 3 10 Clear CLR 76 74     94%   78 29.97 29.95      
Sep 16 00:53 ENE 5 10 Clear CLR 76 74     94%   78 29.98 29.96     0
Sep 15 23:53 ENE 3 10 Clear CLR 77 74     90%   79 29.98 29.96      
Sep 15 22:53 ENE 5 10 Clear CLR 77 75     94%   79 29.99 29.97      
Sep 15 21:53 ENE 5 10 Clear CLR 77 74     90%   79 29.98 29.97   0  
Sep 15 20:53 E 3 10 Mostly Cloudy BKN090 77 74     90%   79 29.98 29.96      
Sep 15 19:53 E 6 10 Clear CLR 77 73     88%   79 29.96 29.94 0    
Sep 15 19:00 ESE 9 10 Light Rain FEW045 SCT095 BKN120 76 72     88%   77 29.94   0    
Sep 15 18:53 ESE 8 9 Light Rain FEW022 SCT070 BKN095 75 71     88%   76 29.94 29.93 0   0
Sep 15 18:46 SE 9 4 Heavy Rain FEW022 BKN070 OVC110 75 70     84%   76 29.95   0    
Notice The following observation data may not be complete
Sep 15 18:42 ESE 8 2 Thunderstorms and Heavy Rain SCT026 BKN040 OVC095   69      %     29.96   0    
Notice The following observation data may not be complete
Sep 15 18:35 ESE 9 0.5 Thunderstorms and Heavy Rain and Fog SCT022 BKN038 OVC120   72      %     29.96   0    
Notice The following observation data may not be complete
Sep 15 18:27   1.25 Thunderstorms and Heavy Rain and Fog/Mist FEW023 BKN039 OVC120   71      %         0    
Sep 15 18:09 E 10 6 Thunderstorms and Rain and Fog/Mist FEW047 BKN100 OVC120 81 77     88%   88     0    
Sep 15 17:53 SE 8 8 Light Rain SCT045 BKN055 OVC090 83 78     85%   93 29.95 29.93 0    
Sep 15 16:53 NE 9 10 Partly Cloudy FEW049 FEW060 SCT090 89 74     61%   98 29.93 29.91      
Sep 15 15:53 NE 8 10 Mostly Clear FEW047 92 73     54%   101 29.94 29.92      
Sep 15 14:53 NE 5 10 Mostly Cloudy BKN043 92 73     54%   101 29.97 29.95      
Sep 15 13:53 E 8 10 Clear CLR 91 73     56%   100 30 29.98      
Sep 15 12:53 ENE 9 10 Clear CLR 90 74     59%   99 30.02 30.01      
Sep 15 11:53 NE 6 10 Clear CLR 87 74     65%   95 30.04 30.02      
Sep 15 10:53 ENE 8 10 Clear CLR 84 74     72%   91 30.05 30.04      
Sep 15 09:53 NE 6 10 Clear CLR 81 74     79%   86 30.05 30.03      
Sep 15 08:53 3 10 Clear CLR 77 74     90%   79 30.04 30.03      
Sep 15 08:22 NNE 3 6 Fog/Mist SCT001 74 73     97%   76 30.04        
Sep 15 08:10 NNE 5 3 Fog/Mist BKN001 73 73     100%   75 30.04        
Sep 15 07:53 N 3 1 Fog/Mist VV002 73 73     100%   75 30.03 30.01      
Sep 15 06:53 N 5 0.5 Fog VV002 72 72     100%   74 30.02 30      
Sep 15 06:40 N 3 1.75 Fog/Mist BKN001 72 72     100%   74 30.02        
Sep 15 06:35 NNE 3 4 Fog/Mist SCT001 72 72     100%   74 30.02        
Sep 15 05:53 N 5 10 Clear CLR 72 72     100%   74 30.01 30      
Sep 15 04:53 NNE 5 10 Clear CLR 73 72     96%   75 30.01 29.99      
Sep 15 03:53 Calm 10 Clear CLR 73 73     100%   75 30.01 29.99      
Sep 15 02:53 Calm 10 Clear CLR 74 73     97%   76 30.01 30      
Sep 15 01:53 Calm 10 Clear CLR 73 73     100%   75 30.01 29.99      
Sep 15 00:53 ENE 3 10 Clear CLR 74 73     97%   76 30.02 30     0
Sep 14 23:53 NE 3 10 Clear CLR 74 73     97%   76 30.04 30.02      
Sep 14 22:53 SE 5 10 Clear CLR 75 73     94%   77 30.05 30.03      
Sep 14 21:53 ESE 3 10 Mostly Clear FEW045 75 74     96%   77 30.05 30.03 0 0  
Sep 14 20:53 SSE 5 10 Light Rain CLR 75 74     96%   77 30.02 30.01 0    
Sep 14 19:53 SSE 9 10 Light Rain CLR 76 75     97%   78 29.99 29.98 0    
Sep 14 18:53 ESE 13 10 Partly Cloudy FEW036 SCT044 SCT120 81 73     77%   86 29.98 29.97     0
Sep 14 17:53 E 6 10 Clear CLR 85 73     68%   92 29.97 29.96      
Sep 14 16:53 ESE 9 10 Clear CLR 86 72     63%   92 29.97 29.96      
Sep 14 15:53 ESE 9 10 Clear CLR 86 72     63%   92 29.98 29.96   0  
Sep 14 14:53 ESE 8 10 Mostly Cloudy BKN034 85 73     68%   92 29.99 29.97      
Sep 14 13:53 ESE 9 10 Partly Cloudy FEW028 SCT038 85 73     68%   92 30.02 30 0    
Sep 14 12:53 ESE 8 10 Light Rain FEW024 SCT046 BKN085 83 73     72%   89 30.04 30.03 0   0
Sep 14 11:53 ESE 7 10 Partly Cloudy SCT020 82 73     74%   87 30.05 30.04      
Sep 14 10:53 E 7 10 Clear CLR 80 73     79%   84 30.05 30.04      
Sep 14 09:53 E 8 10 Clear CLR 78 73     85%   80 30.05 30.03      
Sep 14 08:53 E 3 10 Clear CLR 75 72     90%   76 30.04 30.02      
Sep 14 07:53 E 5 10 Clear CLR 74 71     91%   75 30.03 30.01      
May 15 13:53 SSE 8 10 Clear CLR 87 64     46%   88 29.98 29.96      
May 14 11:08 S 11 10 Mostly Cloudy BKN032 80 69     69%   83 30.03        
May 13 22:53 SSE 9 10 Clear CLR 79 69     72%   80   29.95      
May 13 12:53 SSE 14 10 Cloudy FEW038 OVC048 83 68     61%   86 30.05 30.03      
May 12 07:53 S 11 7 Cloudy FEW014 BKN025 OVC043 73 69     87%   74 30 29.98      
May 12 02:53 S 13 9 Mostly Clear FEW016 72 67     84%   73 29.95 29.93      
May 11 22:53 SSE 11 10 Clear CLR 75 63     66%   75 29.94 29.92      
May 11 20:53 SSE 9 10 Clear CLR 76 63     64%   76 29.89 29.87      
May 11 11:53 S 16 10 Partly Cloudy SCT040 81 65     58%   83   29.98      
May 11 07:53 S 10 8 Cloudy FEW011 OVC024 70 67     90%     29.99 29.98      
Notice The following observation data may not be complete
Jun 11 16:53     Clear            %     29.91        
Notice The following observation data may not be complete
Jun 11 03:53     Clear            %     29.93        
Notice The following observation data may not be complete
Jun 10 21:53     Clear            %     29.89        
Notice The following observation data may not be complete
Jun 09 16:53     Clear            %     29.9        
Jun 06 02:53 NNW 6 10 Clear CLR 73 71     94%   74 29.82 29.8